YV2525 SVBC-SVCS

Flight info

Callsign YV2525
Flight time 0h 30m
Altitude 17500
Route DCT
Aircraft B350/M-SDC/S

Departure

Time 2026-04-22 20:17
Airport General José Antonio Anzoategui International Airport (SVBC)

Arrival

Time 2026-04-22 20:47
Airport Caracas Óscar Machado Zuloaga International Airport (SVCS)
Time Latitude Longitude Altitude Speed Heading
2026-04-22 20:12 10.10780 -64.68669 30 ft 5 kts 242°
2026-04-22 20:13 10.10773 -64.68696 30 ft 12 kts 261°
2026-04-22 20:13 10.10707 -64.68706 30 ft 19 kts 168°
2026-04-22 20:13 10.10531 -64.68666 32 ft 30 kts 171°
2026-04-22 20:13 10.10387 -64.68636 33 ft 20 kts 165°
2026-04-22 20:14 10.10342 -64.68634 34 ft 10 kts 238°
2026-04-22 20:14 10.10374 -64.68656 34 ft 14 kts 341°
2026-04-22 20:14 10.10392 -64.68665 33 ft 0 kts 329°
2026-04-22 20:16 10.10591 -64.68812 31 ft 78 kts 322°
2026-04-22 20:16 10.11137 -64.69277 150 ft 117 kts 312°
2026-04-22 20:16 10.11382 -64.70114 346 ft 140 kts 273°
2026-04-22 20:16 10.11372 -64.71130 534 ft 147 kts 276°
2026-04-22 20:17 10.11413 -64.72176 788 ft 149 kts 278°
2026-04-22 20:17 10.11474 -64.73243 1381 ft 150 kts 280°
2026-04-22 20:17 10.11554 -64.74298 2057 ft 150 kts 281°
2026-04-22 20:17 10.11645 -64.75354 2717 ft 150 kts 279°
2026-04-22 20:18 10.11731 -64.76408 3355 ft 149 kts 278°
2026-04-22 20:18 10.11826 -64.77451 3981 ft 151 kts 279°
2026-04-22 20:18 10.11917 -64.78510 4604 ft 151 kts 277°
2026-04-22 20:18 10.12007 -64.79564 5221 ft 150 kts 277°
2026-04-22 20:19 10.12094 -64.80622 5824 ft 151 kts 277°
2026-04-22 20:19 10.12188 -64.81685 6426 ft 151 kts 277°
2026-04-22 20:19 10.12277 -64.82745 7028 ft 151 kts 277°
2026-04-22 20:19 10.12368 -64.83806 7625 ft 151 kts 276°
2026-04-22 20:20 10.12458 -64.84862 8235 ft 149 kts 277°
2026-04-22 20:20 10.12546 -64.85900 8836 ft 147 kts 276°
2026-04-22 20:20 10.12634 -64.86929 9423 ft 146 kts 276°
2026-04-22 20:20 10.12721 -64.87953 9991 ft 147 kts 276°
2026-04-22 20:21 10.12810 -64.88986 10560 ft 146 kts 276°
2026-04-22 20:21 10.12897 -64.90000 11122 ft 147 kts 276°
2026-04-22 20:21 10.12985 -64.91039 11680 ft 150 kts 276°
2026-04-22 20:21 10.13078 -64.92116 12316 ft 155 kts 276°
2026-04-22 20:22 10.13173 -64.93218 12980 ft 158 kts 276°
2026-04-22 20:22 10.13268 -64.94331 13651 ft 159 kts 276°
2026-04-22 20:22 10.13363 -64.95453 14324 ft 159 kts 276°
2026-04-22 20:22 10.13458 -64.96576 14996 ft 160 kts 276°
2026-04-22 20:23 10.13555 -64.97701 15650 ft 160 kts 276°
2026-04-22 20:23 10.13650 -64.98827 16297 ft 160 kts 276°
2026-04-22 20:23 10.13749 -64.99978 16771 ft 174 kts 276°
2026-04-22 20:23 10.13867 -65.01293 16962 ft 201 kts 276°
2026-04-22 20:24 10.14000 -65.02793 17049 ft 226 kts 276°
2026-04-22 20:24 10.14133 -65.04405 17335 ft 234 kts 275°
2026-04-22 20:24 10.14264 -65.06092 17512 ft 248 kts 275°
2026-04-22 20:24 10.14422 -65.07900 17513 ft 264 kts 275°
2026-04-22 20:25 10.14589 -65.09796 17513 ft 275 kts 275°
2026-04-22 20:25 10.14756 -65.11760 17515 ft 282 kts 275°
2026-04-22 20:25 10.14925 -65.13767 17513 ft 288 kts 275°
2026-04-22 20:25 10.15098 -65.15804 17509 ft 291 kts 275°
2026-04-22 20:26 10.15273 -65.17866 17508 ft 294 kts 275°
2026-04-22 20:26 10.15449 -65.19940 17511 ft 295 kts 275°
2026-04-22 20:26 10.15625 -65.22021 17508 ft 296 kts 275°
2026-04-22 20:26 10.15799 -65.24110 17508 ft 297 kts 275°
2026-04-22 20:27 10.15917 -65.25498 17509 ft 298 kts 275°
2026-04-22 20:27 10.16152 -65.28282 17512 ft 299 kts 275°
2026-04-22 20:27 10.16330 -65.30387 17508 ft 299 kts 275°
2026-04-22 20:27 10.16505 -65.32494 17512 ft 299 kts 275°
2026-04-22 20:28 10.16624 -65.33888 17511 ft 299 kts 275°
2026-04-22 20:28 10.16801 -65.35993 17508 ft 299 kts 275°
2026-04-22 20:28 10.16978 -65.38098 17503 ft 299 kts 275°
2026-04-22 20:28 10.17153 -65.40204 17511 ft 299 kts 275°
2026-04-22 20:29 10.17330 -65.42308 17511 ft 299 kts 275°
2026-04-22 20:29 10.17507 -65.44413 17510 ft 299 kts 275°
2026-04-22 20:29 10.17683 -65.46523 17504 ft 299 kts 275°
2026-04-22 20:29 10.17860 -65.48630 17509 ft 299 kts 275°
2026-04-22 20:30 10.18035 -65.50737 17507 ft 299 kts 275°
2026-04-22 20:30 10.18211 -65.52840 17508 ft 300 kts 275°
2026-04-22 20:30 10.18387 -65.54950 17509 ft 300 kts 275°
2026-04-22 20:30 10.18563 -65.57060 17508 ft 301 kts 275°
2026-04-22 20:31 10.18740 -65.59175 17509 ft 301 kts 275°
2026-04-22 20:31 10.18917 -65.61296 17508 ft 301 kts 275°
2026-04-22 20:31 10.19092 -65.63417 17509 ft 302 kts 275°
2026-04-22 20:31 10.19269 -65.65540 17507 ft 302 kts 275°
2026-04-22 20:32 10.19444 -65.67661 17508 ft 301 kts 275°
2026-04-22 20:32 10.19621 -65.69777 17508 ft 301 kts 275°
2026-04-22 20:32 10.19797 -65.71900 17504 ft 301 kts 275°
2026-04-22 20:32 10.19972 -65.74017 17506 ft 301 kts 275°
2026-04-22 20:33 10.20146 -65.76106 17508 ft 301 kts 275°
2026-04-22 20:33 10.20320 -65.78220 17515 ft 300 kts 275°
2026-04-22 20:33 10.20496 -65.80334 17508 ft 300 kts 275°
2026-04-22 20:33 10.20669 -65.82445 17504 ft 300 kts 275°
2026-04-22 20:34 10.20843 -65.84559 17507 ft 300 kts 275°
2026-04-22 20:34 10.21017 -65.86668 17511 ft 300 kts 275°
2026-04-22 20:34 10.21192 -65.88778 17506 ft 300 kts 275°
2026-04-22 20:34 10.21366 -65.90898 17501 ft 300 kts 275°
2026-04-22 20:35 10.21539 -65.93010 17499 ft 301 kts 275°
2026-04-22 20:35 10.21713 -65.95128 17502 ft 301 kts 275°
2026-04-22 20:35 10.21888 -65.97246 17499 ft 301 kts 275°
2026-04-22 20:35 10.22062 -65.99361 17500 ft 301 kts 275°
2026-04-22 20:36 10.22235 -66.01478 17500 ft 301 kts 275°
2026-04-22 20:36 10.22408 -66.03593 17500 ft 300 kts 275°
2026-04-22 20:36 10.22581 -66.05704 17500 ft 300 kts 275°
2026-04-22 20:36 10.22754 -66.07817 17498 ft 301 kts 275°
2026-04-22 20:37 10.22927 -66.09932 17492 ft 301 kts 275°
2026-04-22 20:37 10.23100 -66.12046 17496 ft 301 kts 275°
2026-04-22 20:37 10.23272 -66.14162 17492 ft 301 kts 275°
2026-04-22 20:37 10.23445 -66.16276 17494 ft 301 kts 275°
2026-04-22 20:38 10.23618 -66.18392 17493 ft 300 kts 275°
2026-04-22 20:38 10.23789 -66.20508 17489 ft 300 kts 275°
2026-04-22 20:38 10.23961 -66.22620 17493 ft 300 kts 275°
2026-04-22 20:38 10.24133 -66.24735 17490 ft 300 kts 275°
2026-04-22 20:39 10.24304 -66.26849 17501 ft 300 kts 275°
2026-04-22 20:39 10.24476 -66.28960 17499 ft 300 kts 275°
2026-04-22 20:39 10.24647 -66.31054 17503 ft 301 kts 275°
2026-04-22 20:39 10.24818 -66.33169 17503 ft 301 kts 275°
2026-04-22 20:40 10.24988 -66.35284 17502 ft 301 kts 275°
2026-04-22 20:40 10.25161 -66.37411 17501 ft 301 kts 275°
2026-04-22 20:40 10.25336 -66.39554 17265 ft 308 kts 275°
2026-04-22 20:40 10.25518 -66.41753 16806 ft 317 kts 275°
2026-04-22 20:41 10.25706 -66.44008 16310 ft 324 kts 275°
2026-04-22 20:41 10.25888 -66.46300 15813 ft 327 kts 275°
2026-04-22 20:41 10.26058 -66.48607 15325 ft 327 kts 274°
2026-04-22 20:41 10.26220 -66.50912 14824 ft 327 kts 275°
2026-04-22 20:42 10.26429 -66.53206 14143 ft 327 kts 275°
2026-04-22 20:42 10.26617 -66.55497 13528 ft 320 kts 275°
2026-04-22 20:42 10.26777 -66.57562 12902 ft 270 kts 275°
2026-04-22 20:42 10.26905 -66.59355 12264 ft 242 kts 275°
2026-04-22 20:43 10.27034 -66.60979 11665 ft 225 kts 275°
2026-04-22 20:43 10.27161 -66.62518 11152 ft 214 kts 272°
2026-04-22 20:43 10.26995 -66.63989 10636 ft 208 kts 258°
2026-04-22 20:43 10.26663 -66.65412 10131 ft 206 kts 257°
2026-04-22 20:44 10.26323 -66.66818 9621 ft 204 kts 257°
2026-04-22 20:44 10.25984 -66.68217 9118 ft 203 kts 257°
2026-04-22 20:44 10.25748 -66.69627 8613 ft 202 kts 265°
2026-04-22 20:44 10.25679 -66.70985 8098 ft 184 kts 269°
2026-04-22 20:45 10.25674 -66.72247 7570 ft 176 kts 277°
2026-04-22 20:45 10.25991 -66.73459 6807 ft 180 kts 294°
2026-04-22 20:45 10.26422 -66.74453 6340 ft 131 kts 298°
2026-04-22 20:45 10.26834 -66.75265 5674 ft 140 kts 298°
2026-04-22 20:46 10.27777 -66.77213 3987 ft 156 kts 296°
2026-04-22 20:46 10.28151 -66.78200 3290 ft 136 kts 290°
2026-04-22 20:46 10.28360 -66.79103 2820 ft 134 kts 283°
2026-04-22 20:47 10.28524 -66.80039 2376 ft 129 kts 282°
2026-04-22 20:47 10.28641 -66.80871 2173 ft 104 kts 276°
2026-04-22 20:47 10.28678 -66.81420 2169 ft 39 kts 275°
2026-04-22 20:47 10.28686 -66.81528 2169 ft 0 kts 273°